EW6750 Weather Reports


Display with metric or nautical units.
time (UTC)temp
F
wind
direction
speed
MPH
gust
MPH
rain 1hr
in
rain 24hr
in
rain mn
in
humidity
%
barometer
mb
20260502160615 66 288 1.0 4.0 0.00 0.01 0.00 48 1013.4
20260502151555 67 342 1.0 3.0 0.00 0.01 0.00 50 1013.9
20260502150552 67 135 2.0 4.0 0.00 0.01 0.00 48 1014.0
20260502130609 70 135 2.0 2.0 0.00 0.01 0.00 45 1015.4
20260502123742 66 50 1.0 4.0 0.00 0.01 0.00 53 1015.6
20260502122616 65 153 1.0 2.0 0.00 0.01 0.00 52 1015.8
20260502121552 67 93 1.0 2.0 0.00 0.01 0.00 51 1016.0
20260502120548 66 0.0 1.0 0.00 0.01 0.00 52 1016.3
20260502115544 66 130 1.0 2.0 0.00 0.01 0.00 54 1016.2
20260502114543 64 12 1.0 3.0 0.00 0.01 0.00 59 1016.3
20260502113559 62 327 1.0 2.0 0.00 0.01 0.00 64 1016.5
20260502112538 61 120 1.0 3.0 0.00 0.01 0.00 64 1016.5
20260502111533 61 84 0.0 2.0 0.00 0.01 0.00 65 1016.7
20260502110529 61 0.0 1.0 0.00 0.01 0.00 66 1016.8
20260502105546 60 90 1.0 2.0 0.00 0.01 0.00 66 1016.8
20260502104522 59 10 0.0 2.0 0.00 0.01 0.00 67 1016.8
20260502103516 59 327 1.0 4.0 0.00 0.01 0.00 67 1016.9
20260502102614 59 79 1.0 3.0 0.00 0.01 0.00 66 1016.8
20260502101610 59 18 2.0 4.0 0.00 0.01 0.00 66 1017.1
20260502100608 60 356 1.0 3.0 0.00 0.01 0.00 66 1017.0
20260502090545 57 0.0 0.0 0.00 0.01 0.00 73 1017.3
20260502070604 52 0.0 0.0 0.00 0.01 0.00 94 1017.5
20260502065644 52 0 0.0 2.0 0.00 0.01 0.00 94 1017.4
20260502064556 52 151 0.0 2.0 0.00 0.01 0.00 95 1017.4
20260502063638 52 56 0.0 2.0 0.00 0.01 0.00 95 1017.5
20260502062548 51 0 0.0 2.0 0.00 0.01 0.00 95 1017.6
20260502061607 51 45 0.0 2.0 0.00 0.01 0.00 95 1017.3
20260502060543 51 16 0.0 2.0 0.00 0.01 0.00 95 1017.4
20260502055539 51 0 0.0 2.0 0.00 0.01 0.00 95 1017.3
20260502054534 51 0.0 1.0 0.00 0.01 0.00 94 1017.4
20260502053532 51 8 1.0 2.0 0.00 0.01 0.00 94 1017.3
20260502052547 50 352 1.0 2.0 0.00 0.01 0.00 94 1017.3
20260502051547 51 357 1.0 3.0 0.00 0.01 0.00 94 1017.4
20260502050520 51 0.0 0.0 0.00 0.01 0.00 94 1017.4
20260502045517 51 225 0.0 2.0 0.00 0.01 0.00 94 1017.5
20260502044613 51 90 0.0 2.0 0.00 0.01 0.00 94 1017.3
20260502043609 51 1 0.0 3.0 0.00 0.01 0.00 94 1017.4
20260502042607 51 0.0 2.0 0.00 0.01 0.00 94 1017.3
20260502041602 51 0 0.0 2.0 0.00 0.01 0.00 94 1017.4
20260502040641 51 0 1.0 2.0 0.00 0.01 0.00 94 1017.5
20260502035556 51 76 1.0 3.0 0.00 0.01 0.00 94 1017.4
20260502034554 51 23 0.0 2.0 0.00 0.01 0.00 94 1017.5
20260502033551 52 154 1.0 3.0 0.00 0.01 0.00 95 1017.5
20260502032545 51 90 0.0 2.0 0.00 0.01 0.00 95 1017.4
20260502031542 52 90 0.0 2.0 0.00 0.01 0.00 95 1017.4
20260502030539 52 0.0 0.0 0.00 0.01 0.00 96 1017.5
20260502025537 52 56 0.0 3.0 0.00 0.01 0.00 96 1017.5
20260502024533 52 45 0.0 2.0 0.00 0.01 0.00 96 1017.4
20260502023530 52 55 1.0 2.0 0.00 0.01 0.00 97 1017.6
20260502022527 53 107 1.0 2.0 0.00 0.01 0.00 97 1017.6
20260502021521 53 82 1.0 3.0 0.00 0.01 0.00 97 1017.7
20260502020537 53 125 1.0 3.0 0.00 0.01 0.00 97 1017.6
20260502015614 54 116 1.0 2.0 0.00 0.01 0.00 97 1017.8
20260502014613 54 90 0.0 2.0 0.00 0.01 0.00 97 1017.8
20260502013608 54 0.0 1.0 0.00 0.01 0.00 97 1017.9
20260502012623 54 0.0 0.0 0.00 0.01 0.00 97 1017.9
20260502011620 54 0.0 1.0 0.00 0.01 0.00 97 1018.1
20260502010557 54 0.0 1.0 0.00 0.01 0.00 97 1018.1
20260502005554 54 0.0 1.0 0.00 0.01 0.00 96 1018.4
20260502004634 54 45 0.0 2.0 0.00 0.01 0.00 96 1018.5
20260502003545 54 0.0 0.0 0.00 0.01 0.00 96 1018.7
20260502002544 54 0.0 1.0 0.00 0.01 0.00 96 1018.6
20260502001538 53 0.0 0.0 0.00 0.01 0.00 95 1018.6
20260502000618 53 0.0 0.0 0.00 0.01 0.00 95 1018.7
20260501235533 54 0.0 0.0 0.00 0.01 0.00 95 1018.7
20260501234528 54 0.0 0.0 0.00 0.01 0.00 95 1018.7
20260501233524 54 0.0 0.0 0.00 0.01 0.00 95 1018.8
20260501232522 54 0.0 0.0 0.00 0.01 0.00 95 1018.8
20260501231517 54 0.0 1.0 0.00 0.01 0.00 95 1018.7
20260501230615 55 0.0 1.0 0.00 0.01 0.00 92 1018.9
20260501225631 55 45 0.0 2.0 0.00 0.01 0.01 91 1018.9
20260501224607 55 90 0.0 2.0 0.00 0.01 0.01 91 1018.7
20260501223624 55 77 1.0 3.0 0.00 0.01 0.01 91 1018.8
20260501222601 55 90 0.0 1.0 0.00 0.01 0.01 91 1018.6
20260501221558 55 45 0.0 2.0 0.00 0.01 0.01 91 1018.6
20260501220553 55 90 0.0 2.0 0.00 0.01 0.01 90 1018.6
20260501215611 56 0.0 1.0 0.00 0.01 0.01 90 1018.9
20260501214545 56 101 0.0 2.0 0.00 0.01 0.01 90 1018.9
20260501213542 56 90 0.0 2.0 0.00 0.01 0.01 90 1019.0
20260501212538 56 74 1.0 3.0 0.00 0.01 0.01 90 1018.9
20260501211537 56 0.0 1.0 0.00 0.01 0.01 90 1018.9
20260501210533 56 135 1.0 2.0 0.00 0.01 0.01 90 1019.0
20260501205548 56 101 0.0 2.0 0.00 0.01 0.01 90 1019.1
20260501204524 56 90 1.0 2.0 0.00 0.01 0.01 89 1019.0
20260501203522 56 120 0.0 2.0 0.01 0.01 0.01 89 1019.1
20260501202519 56 90 0.0 2.0 0.01 0.01 0.01 88 1019.1
20260501201615 56 0.0 1.0 0.01 0.01 0.01 87 1019.0
20260501200610 56 90 0.0 2.0 0.01 0.01 0.01 86 1019.1
20260501195610 56 90 0.0 2.0 0.01 0.01 0.01 85 1019.2
20260501194625 57 90 0.0 2.0 0.01 0.01 0.01 83 1019.1
20260501193600 57 68 0.0 2.0 0.00 0.00 0.00 82 1019.1
20260501192557 58 93 1.0 2.0 0.00 0.00 0.00 80 1019.1
20260501191554 58 90 1.0 4.0 0.00 0.00 0.00 76 1019.1
20260501190609 59 135 1.0 2.0 0.00 0.00 0.00 73 1019.1
20260501185607 59 104 1.0 3.0 0.00 0.00 0.00 72 1019.0
20260501184542 60 76 1.0 3.0 0.00 0.00 0.00 71 1019.0
20260501183558 60 107 1.0 3.0 0.00 0.00 0.00 71 1018.9
20260501182534 60 118 1.0 3.0 0.00 0.00 0.00 71 1018.8
20260501181531 60 90 0.0 2.0 0.00 0.00 0.00 70 1018.9
20260501180528 61 138 2.0 3.0 0.00 0.00 0.00 70 1018.8
20260501175524 61 130 2.0 4.0 0.00 0.00 0.00 69 1018.8
20260501174521 61 116 1.0 2.0 0.00 0.00 0.00 67 1018.8
20260501173517 62 185 2.0 4.0 0.00 0.00 0.00 68 1018.8
20260501172615 62 135 1.0 3.0 0.00 0.00 0.00 68 1018.8
20260501171609 62 95 2.0 4.0 0.00 0.00 0.00 67 1018.8
20260501170607 62 135 2.0 3.0 0.00 0.00 0.00 66 1018.8
20260501165603 63 135 3.0 6.0 0.00 0.00 0.00 65 1018.7
20260501164600 63 144 3.0 5.0 0.00 0.00 0.00 63 1018.5
20260501163556 64 52 2.0 4.0 0.00 0.00 0.00 61 1018.6
20260501162614 66 81 4.0 7.0 0.00 0.00 0.00 58 1018.5
20260501161549 68 111 2.0 5.0 0.00 0.00 0.00 54 1018.2